Location: Gorze? G�rny
(49.8500°N, 19.5000°E)
Time: 13:15:15
(UTC+00:00)

Cosmos 1538 Rocket - Pass Details

Date: 13 May 2021
Orbit: 752 x 792 km, 74.0° (Epoch: 22 June)

Event Time Altitude Azimuth Distance (km) Brightness Sun altitude
Rises 18:55:34 0° 338° (NNW) 3,300 8.5 -5.8°
Reaches altitude 10° 18:58:02 10° 343° (NNW) 2,364 7.5 -6.1°
Maximum altitude 19:03:19 54° 61° (ENE) 951 4.4 -6.8°
Drops below altitude 10° 19:08:30 10° 139° (SE) 2,329 5.8 -7.4°
Enters shadow 19:08:47 - 139° (SE) 2,433 5.9 -7.4°
